Weather History for KMFD - March, 2013

Change the Weather History Date:

Sunday, March 31, 2013

  Actual Average Record
Temperature  
Mean Temperature 47 °F 43 °F  
Max Temperature 52 °F 53 °F 80 °F (1986)
Min Temperature 41 °F 33 °F 5 °F (1923)
Degree Days  
Heating Degree Days 18 22  
Month to date heating degree days 975 866  
Since 1 July heating degree days 5348 5490  
Cooling Degree Days 0 0  
Month to date cooling degree days 0 1  
Year to date cooling degree days 0 1  
Moisture  
Dew Point 35 °F    
Average Humidity 68    
Maximum Humidity 86    
Minimum Humidity 49    
Precipitation  
Precipitation 0.01 in 0.13 in 1.08 in (1985)
Month to date precipitation 1.96 3.39  
Year to date precipitation 6.69 8.65  
Snow  
Snow 0.00 in 0.10 in - ()
Month to date snowfall 9.5 7.8  
Since 1 July snowfall 39.3 45.7  
Snow Depth 0.00 in    
Sea Level Pressure  
Sea Level Pressure 29.78 in    
Wind  
Wind Speed 11 mph (SSW)    
Max Wind Speed 23 mph    
Max Gust Speed 35 mph    
Visibility 10 miles    
Events Rain    
T = Trace of Precipitation, MM = Missing Value Source: NWS Daily Summary

Daily Weather History Graph

Daily Weather History Graph

Search for Another Location

Airport or City:

Trip Planner

Search our weather history database for the weather conditions in past years. The results will help you decide how hot, cold, wet, or windy it might be!

Date:

Astronomy

Mar. 31, 2013 Rise Set
Actual Time 7:14 AM EDT 7:54 PM EDT
Civil Twilight 6:47 AM EDT 8:21 PM EDT
Nautical Twilight 6:14 AM EDT 8:54 PM EDT
Astronomical Twilight 5:40 AM EDT 9:28 PM EDT
Moon 12:00 AM EDT (3/31) 9:59 AM EDT (3/31)
Length of Visible Light 13h 34m
Length of Day
12h 39m
Waning Gibbous, 78% of the Moon is Illuminated
Mar 31
Waning Gibbous
Apr 3
Last Quarter
Apr 10
New
Apr 18
First Quarter
Apr 25
Full

Hourly Weather History & Observations

Time (EDT) Temp. Windchill Dew Point Humidity Pressure Visibility Wind Dir Wind Speed Gust Speed Precip Events Conditions
12:52 AM 44.1 °F 40.1 °F 26.1 °F 49% 29.96 in 10.0 mi SSE 6.9 mph - N/A   Clear
1:52 AM 43.0 °F 39.5 °F 25.0 °F 49% 29.94 in 10.0 mi SE 5.8 mph - N/A   Clear
2:52 AM 42.1 °F 37.7 °F 25.0 °F 51% 29.90 in 10.0 mi SSE 6.9 mph - N/A   Clear
3:52 AM 42.1 °F 36.6 °F 25.0 °F 51% 29.87 in 10.0 mi SSE 9.2 mph - N/A   Clear
4:52 AM 42.1 °F 37.1 °F 25.0 °F 51% 29.85 in 10.0 mi SSE 8.1 mph - N/A   Scattered Clouds
5:52 AM 42.1 °F 37.7 °F 25.0 °F 51% 29.83 in 10.0 mi SSE 6.9 mph - N/A   Mostly Cloudy
6:52 AM 43.0 °F 38.2 °F 25.0 °F 49% 29.81 in 10.0 mi SSE 8.1 mph - N/A   Mostly Cloudy
7:52 AM 43.0 °F 38.8 °F 27.0 °F 53% 29.81 in 10.0 mi South 6.9 mph - N/A   Overcast
8:52 AM 45.0 °F 39.7 °F 30.0 °F 56% 29.81 in 10.0 mi SSW 10.4 mph - N/A   Overcast
9:52 AM 46.0 °F 40.6 °F 37.0 °F 71% 29.80 in 10.0 mi SSW 11.5 mph - N/A   Overcast
10:52 AM 46.9 °F - 42.1 °F 83% 29.78 in 10.0 mi South 11.5 mph - 0.00 in   Overcast
11:52 AM 48.9 °F - 41.0 °F 74% 29.78 in 10.0 mi South 12.7 mph - N/A   Overcast
12:52 PM 51.1 °F - 39.9 °F 66% 29.76 in 10.0 mi SW 12.7 mph - N/A   Overcast
1:52 PM 50.0 °F - 42.1 °F 74% 29.74 in 10.0 mi SW 16.1 mph 20.7 mph N/A   Overcast
2:52 PM 48.0 °F - 44.1 °F 86% 29.74 in 4.0 mi SW 10.4 mph - 0.01 in Rain Light Rain
3:38 PM 48.2 °F - 44.6 °F 87% 29.71 in 7.0 mi West 12.7 mph 18.4 mph 0.00 in   Overcast
3:52 PM 48.0 °F - 44.1 °F 86% 29.73 in 8.0 mi WSW 9.2 mph 18.4 mph 0.00 in   Overcast
4:52 PM 50.0 °F - 43.0 °F 77% 29.72 in 10.0 mi SW 15.0 mph 21.9 mph N/A   Overcast
5:19 PM 51.8 °F - 42.8 °F 71% 29.70 in 10.0 mi WSW 11.5 mph 18.4 mph N/A   Mostly Cloudy
5:44 PM 51.8 °F - 39.2 °F 62% 29.70 in 10.0 mi WSW 11.5 mph 23.0 mph N/A   Mostly Cloudy
5:52 PM 52.0 °F - 39.0 °F 61% 29.72 in 10.0 mi WSW 12.7 mph 23.0 mph N/A   Mostly Cloudy
6:52 PM 51.1 °F - 37.9 °F 61% 29.72 in 10.0 mi SW 12.7 mph 18.4 mph N/A   Partly Cloudy
7:52 PM 50.0 °F - 37.0 °F 61% 29.72 in 10.0 mi SSW 11.5 mph 19.6 mph N/A   Clear
8:52 PM 46.0 °F 41.4 °F 37.0 °F 71% 29.73 in 10.0 mi SSW 9.2 mph - N/A   Clear
9:52 PM 46.9 °F - 36.0 °F 66% 29.73 in 10.0 mi SSW 10.4 mph - N/A   Overcast
10:52 PM 48.9 °F - 36.0 °F 61% 29.72 in 10.0 mi SW 15.0 mph 24.2 mph N/A   Overcast
11:52 PM 48.0 °F - 37.9 °F 68% 29.71 in 10.0 mi SW 16.1 mph 24.2 mph N/A   Clear